Вернуться в каталог

FENGYUN 1C DEB

АктивенPO
NORAD 30632·DEBRIS·🇨🇳 China

Запущен May 10, 1999 с Taiyuan Satellite Launch Center

Loading…

Ближайшие Пролёты (ближайшие 24 часа)

TLE

СвежийSource: Space-Track

Эпоха: Sep 14, 2026, 05:19 UTC

1 30632U 99025ANP 26257.22186575  .00010182  00000-0  15725-2 0  9991
2 30632  98.8364  55.4986 0013864  33.0796 139.6911 14.73479310 17345

Отслеживайте FENGYUN 1C DEB в реальном времени с AllMySat

Download on the App Store